Regional Weather Roundup
Issued by NWS Upton, NY

Current Version | Previous Version | Graphics & Text | Print | Product List | Glossary Off
Versions: 1 2 3 4 5 6 7 8 9 10 11 12 13 14 15 16 17 18 19 20 21 22 23 24 25 26 27 28 29 30 31 32 33 34 35 36 37 38 39 40 41 42 43 44 45 46 47 48 49 50

754
ASUS41 KOKX 210608
RWROKX

REGIONAL WEATHER ROUNDUP
NATIONAL WEATHER SERVICE NEW YORK NY
100 AM EST TUE FEB 21 2017

NOTE: "FAIR" INDICATES FEW OR NO CLOUDS BELOW 12,000 FEET WITH NO
SIGNIFICANT WEATHER AND/OR OBSTRUCTIONS TO VISIBILITY.

NYZ071-072-176-178-NJZ106-104-210700-
NEW YORK CITY METRO AREA

CITY           SKY/WX    TMP DP  RH WIND       PRES   REMARKS
Central Park   CLEAR     39   9  29 VRB7      30.39R WCI  34
Wall St Helipt NOT AVBL
LaGuardia APRT PTCLDY    40  12  32 NE7       30.37R
Kennedy INTL   PTCLDY    36  13  38 NE9       30.38R WCI  29
Breezy Point     N/A     37 N/A N/A NE8         N/A  WCI  31
Newark/Liberty PTCLDY    36  15  42 N12       30.37R WCI  28
Teterboro      CLEAR     37  14  38 N5        30.37R WCI  33
$$

NYZ177-179-078>081-210700-
LONG ISLAND NEW YORK

CITY           SKY/WX    TMP DP  RH WIND       PRES   REMARKS
Jones Beach      N/A     36 N/A N/A N8          N/A  WCI  29
Matinecock PT  NOT AVBL
Farmingdale    CLEAR     32  18  56 N6        30.37R WCI  26
MacArthur/ISP  CLEAR     32  17  54 N5        30.35S WCI  27
Shirley        CLEAR     30  17  58 N3        30.36F
Westhampton    CLEAR     24  15  68 CALM      30.37S
Southampton    NOT AVBL
Bridgehampton  NOT AVBL
East Hampton     N/A     26  17  68 CALM      30.35S
Montauk          N/A     37  20  50 NE7       30.35F WCI  32
$$

NYZ052-065-067-210700-
HUDSON VALLEY

CITY           SKY/WX    TMP DP  RH WIND       PRES   REMARKS
White Plains   CLEAR     30  10  43 W3        30.35R
Newburgh       CLEAR     28  18  64 CALM      30.38R
Montgomery     CLOUDY    26  17  68 CALM      30.36R
Poughkeepsie   CLEAR     26  18  71 CALM      30.37S
Albany         CLOUDY    26  14  60 NW6       30.40R WCI  19
$$

NJZ001-105-106-008-010-013-015-019>022-104-210700-
NEW JERSEY

CITY           SKY/WX    TMP DP  RH WIND       PRES   REMARKS
Newark/Liberty PTCLDY    36  15  42 N12       30.37R WCI  28
Teterboro      CLEAR     37  14  38 N5        30.37R WCI  33
Caldwell       CLEAR     30  19  63 CALM      30.37S
Somerville     CLOUDY    28  20  71 CALM      30.35S
Linden         NOT AVBL
Sussex         CLOUDY    27  20  75 CALM      30.36S
Andover          N/A     25  20  81 CALM      30.35F
Trenton        CLOUDY    37  15  40 NE9       30.35S WCI  30
Millville      PTCLDY    37  20  50 NE7       30.34S WCI  32
Atlantic City  CLEAR     35  18  49 NE5       30.34S WCI  31
Wrightstown    CLEAR     26  17  67 NE6       30.33S WCI  20
Toms River     CLEAR     25  17  72 CALM      30.36S
Belmar         CLEAR     37  17  44 NE6       30.37R WCI  32
$$

PAZ047>061-062-071-210700-
EASTERN PENNSYLVANIA

CITY           SKY/WX    TMP DP  RH WIND       PRES   REMARKS
Philadelphia   CLEAR     39  15  37 CALM      30.37R
Allentown      CLOUDY    32  14  47 CALM      30.35S
Scranton       CLOUDY    29  18  63 E5        30.32F WCI  24
$$

CTZ002-004>006-009-010-012-RIZ004-006-007-MAZ004-011-015-210700-
SOUTHERN NEW ENGLAND
 IN CT

CITY           SKY/WX    TMP DP  RH WIND       PRES   REMARKS
Bradley INTL   CLOUDY    25  13  60 N5        30.37S WCI  19
Hartford       CLEAR     29  13  51 CALM      30.37F
Danbury        CLEAR     24  15  68 CALM      30.36S
Wtrbury/Oxford CLEAR     30   9  40 NE9       30.35R WCI  22
Bridgeport     CLEAR     35  13  40 N3        30.37R
Meriden        CLEAR     28  17  63 NW3       30.36F
New Haven      CLEAR     29  14  53 N5        30.36S WCI  24
Chester          N/A     32  10  40 N5        30.34S WCI  27
Groton         CLEAR     32  14  47 N8        30.35F WCI  25
Wilimantic     CLEAR     24  18  77 CALM      30.37R

 IN RI

CITY           SKY/WX    TMP DP  RH WIND       PRES   REMARKS
Providence     CLEAR     31  14  49 N9        30.36S WCI  23
Block Island   CLEAR     35  19  52 N10       30.35S WCI  27
Westerly       CLEAR     31  14  49 N3        30.36S
 IN MA

CITY           SKY/WX    TMP DP  RH WIND       PRES   REMARKS
Boston         CLEAR     32  16  51 NW8       30.37S WCI  25
Worcester      CLEAR     29   9  43 N8        30.31F WCI  21
Westfield      CLOUDY    21  14  74 CALM      30.37R
Provincetown   CLEAR     38  25  59 N13       30.36R WCI  30
Nantucket      CLOUDY    35  29  78 NW9       30.33R WCI  28
$$

ANZ330-335-338-340-345-350-353-355-210700-
COASTAL MARINE OBSERVATIONS


STATION/POSITION TIME  SKY/WX   TEMP    WIND        PRES    VSBY  WAVE
                                AIR SEA DIR/SP/G                  HT/PER
                 (UTC)          (F)     (DEG/KT/KT) (MB)    (MI)  (FT/S)
NY HARB ENTRANCE 0450            41 42   30/ 16/ 17 1027.2          3/ 4
20 S FIRE ISLAND 0550            40 41   40/ 16/ 17 1027.1          3/ 4
GREAT SOUTH BAY  NOT AVBL
23 SSW MONTAUK P 0450            40 44              1027.9          2/ 4
15 E BARNEGAT LI 0530               44                N/A           5/ 5
HUDSON CANYON    0450               49              1026.6          4/ 5
KINGS POINT      0548               38              1028.4
EXECUTION ROCKS  NOT AVBL
CENTRAL LI SOUND 0515            38      20/  8/ 10   N/A           1
EASTERN LI SOUND NOT AVBL
ROBBINS REEF     0542                    30/  9/ 12 1028.6
$$


>>>>>>>>>>>>>>>>>>>>>>>>>>>> KEY <<<<<<<<<<<<<<<<<<<<<<<<<<<
>                                                          <
>     SKY/WX - Sky Condition/Present Weather               <
>     TMP    - Temperature in Fahrenheit                   <
>     DP     - Dew Point in Fahrenheit                     <
>     RH     - Relative Humidity in Percent                <
>     WIND   - Direction (from) and Speed in MPH           <
>     PRES   - Mean Sea Level Pressure (inches of Hg)      <
>     WCI    - Wind Chill Index                            <
>     VSB    - VISIBILITY IN MILES                         <
>     HX     - HEAT INDEX                                  <
>     TC     - TEMPERATURE IN CELSIUS                      <
>     VRB    - VARIABLE WIND DIRECTION                     <
>                                                          <
>>>>>>>>>>>>>>>>>>>>>>>>>>>> KEY <<<<<<<<<<<<<<<<<<<<<<<<<<<




USA.gov is the U.S. government's official web portal to all federal, state and local government web resources and services.